Weather History for Alexandria Esle, LA

Change the Weather History Date:

Thursday, February 16, 2012

  Actual Average Record
Temperature  
Mean Temperature 60 °F -  
Max Temperature 66 °F 62 °F 80 °F (1976)
Min Temperature 54 °F 41 °F 25 °F (1977)
Degree Days  
Heating Degree Days 4    
Growing Degree Days 10 (Base 50)    
Moisture  
Dew Point 57 °F    
Average Humidity 85    
Maximum Humidity 100    
Minimum Humidity 63    
Precipitation  
Precipitation 0.01 in - - ()
Sea Level Pressure  
Sea Level Pressure 30.10 in    
Wind  
Wind Speed 4 mph (NNW)    
Max Wind Speed 8 mph    
Max Gust Speed -    
Visibility 9 miles    
Events      
Averages and records for this station are not official NWS values.
T = Trace of Precipitation, MM = Missing Value Source: NWS Daily Summary

Daily Weather History Graph

Daily Weather History Graph

Search for Another Location

Airport:

Trip Planner

Search our weather history database for the weather conditions in past years. The results will help you decide how hot, cold, wet, or windy it might be!

Date:

Astronomy

Feb. 16, 2012 Rise Set
Actual Time 6:50 AM CST 5:56 PM CST
Civil Twilight 6:25 AM CST 6:21 PM CST
Nautical Twilight 5:56 AM CST 6:50 PM CST
Astronomical Twilight 5:28 AM CST 7:18 PM CST
Moon 2:33 AM CST (2/16) 1:01 PM CST (2/16)
Length of Visible Light 11h 56m
Length of Day
11h 06m
Waning Crescent, 28% of the Moon is Illuminated
Feb 16
Waning Crescent
Feb 21
New
Feb 29
First Quarter
Mar 8
Full
Mar 14
Last Quarter

Hourly Weather History & Observations

Time (CST) Temp. Dew Point Humidity Pressure Visibility Wind Dir Wind Speed Gust Speed Precip Events Conditions
12:31 AM 62.6 °F 62.6 °F 100% 30.01 in 1.5 mi WNW 3.5 mph - N/A   Overcast
12:41 AM 62.6 °F 62.6 °F 100% 30.01 in 2.5 mi WNW 3.5 mph - 0.01 in   Overcast
12:53 AM 63.0 °F 62.1 °F 97% 30.02 in 2.5 mi WNW 3.5 mph - 0.01 in   Overcast
1:16 AM 62.6 °F 62.6 °F 100% 30.03 in 4.0 mi WNW 3.5 mph - N/A   Overcast
1:53 AM 63.0 °F 62.1 °F 97% 30.03 in 5.0 mi NW 5.8 mph - N/A   Overcast
2:16 AM 62.6 °F 62.6 °F 100% 30.03 in 8.0 mi Calm Calm - N/A   Overcast
2:28 AM 62.6 °F 62.6 °F 100% 30.03 in 10.0 mi NNW 3.5 mph - N/A   Overcast
2:53 AM 63.0 °F 62.1 °F 97% 30.03 in 9.0 mi NW 4.6 mph - N/A   Overcast
3:46 AM 62.6 °F 60.8 °F 94% 30.05 in 10.0 mi WNW 4.6 mph - N/A   Overcast
3:53 AM 62.1 °F 61.0 °F 96% 30.05 in 10.0 mi NW 4.6 mph - N/A   Overcast
4:53 AM 62.1 °F 60.1 °F 93% 30.06 in 10.0 mi NW 4.6 mph - N/A   Overcast
5:53 AM 62.1 °F 60.1 °F 93% 30.09 in 9.0 mi NNW 8.1 mph - N/A   Overcast
6:14 AM 62.6 °F 60.8 °F 94% 30.09 in 10.0 mi Variable 3.5 mph - N/A   Overcast
6:53 AM 61.0 °F 57.9 °F 90% 30.11 in 10.0 mi Variable 3.5 mph - N/A   Overcast
7:53 AM 61.0 °F 57.9 °F 90% 30.13 in 10.0 mi Variable 5.8 mph - N/A   Overcast
8:53 AM 62.1 °F 57.9 °F 86% 30.16 in 10.0 mi NE 3.5 mph - N/A   Overcast
9:15 AM 62.6 °F 57.2 °F 82% 30.18 in 10.0 mi Calm Calm - N/A   Overcast
9:53 AM 63.0 °F 57.0 °F 81% 30.18 in 10.0 mi Variable 4.6 mph - N/A   Overcast
10:53 AM 63.0 °F 55.9 °F 78% 30.19 in 10.0 mi Variable 4.6 mph - N/A   Overcast
11:53 AM 64.0 °F 54.0 °F 70% 30.19 in 10.0 mi NE 8.1 mph - N/A   Overcast
12:53 PM 64.0 °F 54.0 °F 70% 30.15 in 10.0 mi Variable 4.6 mph - N/A   Mostly Cloudy
1:24 PM 64.4 °F 53.6 °F 68% 30.14 in 10.0 mi Variable 4.6 mph - N/A   Scattered Clouds
1:53 PM 66.0 °F 54.0 °F 65% 30.12 in 10.0 mi ENE 8.1 mph - N/A   Partly Cloudy
2:53 PM 66.9 °F 54.0 °F 63% 30.11 in 10.0 mi Variable 5.8 mph - N/A   Clear
3:53 PM 64.9 °F 53.1 °F 65% 30.11 in 10.0 mi ENE 3.5 mph - N/A   Clear
4:53 PM 64.4 °F 53.6 °F 68% 30.14 in 10.0 mi Calm Calm - N/A   Clear
5:53 PM 60.1 °F 54.0 °F 80% 30.14 in 10.0 mi Calm Calm - N/A   Clear
6:53 PM 59.0 °F 51.1 °F 75% 30.13 in 10.0 mi Calm Calm - N/A   Clear
7:53 PM 57.9 °F 51.1 °F 78% 30.13 in 10.0 mi Calm Calm - N/A   Clear
8:53 PM 57.0 °F 52.0 °F 83% 30.15 in 10.0 mi Calm Calm - N/A   Clear
9:53 PM 55.9 °F 51.1 °F 84% 30.16 in 10.0 mi Variable 3.5 mph - N/A   Clear
10:53 PM 55.0 °F 50.0 °F 83% 30.15 in 10.0 mi Variable 5.8 mph - N/A   Clear
11:53 PM 54.0 °F 48.9 °F 83% 30.14 in 10.0 mi Variable 4.6 mph - N/A   Clear